GSAT-7A

Last updated on Fri Dec 19 2025 00:02:52 GMT+0000 (Coordinated Universal Time)

1 43864U 18105A 25352.42376593 .00000000 00000+0 00000+0 0 9994 2 43864 0.0212 19.3094 0002498 237.7474 45.5423 1.00271779 25638
UTC large
Height (km)
Speed (km/s)
/
Latitude / Longitude
Inclination (degrees)
Orbital Period (minutes)
Azimuth
Elevation
Range (km)
Doppler Factor

Next 0 passes for location: London (51.5072 / 0.1276)

Sorry there are no passes over London.